Regional Weather Roundup
Issued by NWS

Home | Current Version | Previous Version | Graphics & Text | Print | Product List | Glossary Off
Versions: 1 2 3 4 5 6 7 8 9 10 11 12 13 14 15 16 17 18 19 20 21 22 23 24 25 26 27 28 29 30 31 32 33 34 35 36 37 38 39 40 41 42 43 44 45 46 47 48 49 50

000
ASUS43 KMKX 180100
RWRWI

WISCONSIN REGIONAL WEATHER ROUNDUP
NATIONAL WEATHER SERVICE MILWAUKEE/SULLIVAN WI
700 PM CST WED DEC 17 2014

NOTE: "FAIR" INDICATES FEW OR NO CLOUDS BELOW 12,000 FEET WITH NO
SIGNIFICANT WEATHER AND/OR OBSTRUCTIONS TO VISIBILITY.

WIZ001-002-006>008-014>016-023>028-180200-
NORTHWEST WISCONSIN

CITY           SKY/WX    TMP DP  RH WIND       PRES   REMARKS
SUPERIOR ARPT  CLOUDY    19  15  86 NW3       30.32F
ASHLAND        CLOUDY    22  19  89 VRB3      30.31S
HAYWARD        CLOUDY    18  12  77 N6        30.27F WCI  10
SIREN          PTCLDY    12   9  89 CALM      30.31R
CUMBERLAND     CLEAR     14  10  85 CALM      30.28R
RICE LAKE      PTCLDY    17  11  78 NW3       30.30S
CHETEK         CLOUDY    17  11  77 NW3       30.29S
LADYSMITH      CLOUDY    20  14  79 NW7       30.27S WCI  11
EAU CLAIRE     PTCLDY    15   8  73 CALM      30.29S
MENOMONIE      CLEAR     17  10  75 W3        30.30S
NEW RICHMOND   PTCLDY    14  10  85 CALM      30.30S
OSCEOLA        PTCLDY    13  10  87 CALM      30.33F
$$

WIZ003>005-009-010-017-018-180200-
NORTH CENTRAL WISCONSIN

CITY           SKY/WX    TMP DP  RH WIND       PRES   REMARKS
MANITOWISH WTR CLOUDY    21  19  94 N5        30.21R WCI  14
ARBOR VITAE    CLOUDY    23  20  87 N10       30.20S WCI  12
WOODRUFF       CLOUDY    23  20  87 N10       30.20S WCI  12
RHINELANDER    CLOUDY    20  17  88 NW5       30.20R WCI  13
EAGLE RIVER    CLOUDY    21  19  91 N12       30.19R WCI   9
LAND O LAKES   CLOUDY    22  19  91 N9G16     30.20R WCI  11
PHILLIPS       CLOUDY    19  15  87 N6        30.22S WCI  10
TOMAHAWK       CLOUDY    20  17  86 CALM      30.21S
MEDFORD        CLOUDY    19  13  79 NW5       30.22R WCI  12
MERRILL        CLOUDY    21  17  82 N7        30.21S WCI  13
$$

WIZ029-030-035-036-043>047-180200-
CENTRAL WISCONSIN

CITY           SKY/WX    TMP DP  RH WIND       PRES   REMARKS
WAUSAU         CLOUDY    23  15  71 N7        30.21R WCI  15
MOSINEE        CLOUDY    21  18  86 W7        30.23R WCI  13
MARSHFIELD     CLOUDY    18  12  77 NW10      30.23S WCI   6
STEVENS POINT  CLOUDY    18  11  74 NW6       30.23F WCI   9
WAUPACA        CLOUDY    23  13  67 W8        30.24S WCI  14
WAUTOMA        NOT AVBL
WISC RAPIDS    MOCLDY    18  10  71 NW6       30.25S WCI  10
CAMP DOUGLAS   PTCLDY    16  16 100 NW5       30.27S WCI   9
$$

WIZ011>013-019>022-031-037>040-048>050-180200-
NORTHEAST WISCONSIN

CITY           SKY/WX    TMP DP  RH WIND       PRES   REMARKS
ANTIGO         CLOUDY    21  18  88 NW9       30.18S WCI  10
SHAWANO        CLOUDY    28  19  70 NW6       30.22S WCI  21
OCONTO         CLOUDY    26  19  75 NW5       30.20R WCI  21
STURGEON BAY   CLOUDY    27  19  74 NW12      30.19R WCI  16
GREEN BAY      CLOUDY    26  18  71 W10       30.22R WCI  16
MANITOWOC      NOT AVBL
APPLETON       NOT AVBL
CLINTONVILLE   CLOUDY    25  18  74 W8        30.22S WCI  16
OSHKOSH        CLEAR     21  13  71 W10       30.23S WCI  10
$$

WIZ032>034-041-042-053>061-180200-
SOUTHWEST WISCONSIN

CITY           SKY/WX    TMP DP  RH WIND       PRES   REMARKS
LA CROSSE      CLOUDY    21  12  68 N5        30.32R WCI  15
SPARTA         CLOUDY    19  13  76 NW3       30.30S
VIROQUA        CLOUDY    19  14  82 N9        30.25S WCI   7
BOSCOBEL       CLEAR     20  13  74 N5        30.31R WCI  13
PRAIRIE DU CHI CLEAR     21  14  74 CALM      30.30S
PLATTEVILLE    CLEAR     20  15  83 CALM      30.28R
$$

WIZ056-057-062-063-064-067-068-180200-
SOUTH CENTRAL WISCONSIN

CITY           SKY/WX    TMP DP  RH WIND       PRES   REMARKS
REEDSBURG      CLOUDY    19  13  76 NW8       30.27R WCI   9
BARABOO/DELLS  CLOUDY    19  13  76 NW6       30.26S WCI  11
LONE ROCK      NOT AVBL
MINERAL POINT  CLOUDY    21  18  86 CALM      30.25S
MADISON        CLOUDY    21  14  74 NW9       30.26R WCI  11
MIDDLETON      CLOUDY    24  15  70 NW9       30.26R WCI  14
WATERTOWN      MOCLDY    21  15  78 NW6       30.25R WCI  13
MONROE         CLOUDY    23  18  80 NW6       30.25R WCI  16
JANESVILLE     CLOUDY    25  18  74 NW6       30.26R WCI  18
$$

WIZ051-052-058>065-066-070>072-180200-
SOUTHEAST WISCONSIN

CITY           SKY/WX    TMP DP  RH WIND       PRES   REMARKS
MILWAUKEE      PTCLDY    23  13  65 W10       30.24R WCI  12
WAUKESHA       PTCLDY    19  12  73 W10       30.24S WCI   8
MILWAUKEE/TIMM CLEAR     21  14  73 W8        30.24S WCI  12
RACINE         PTCLDY    23  14  68 NW8       30.26R WCI  14
BURLINGTON     CLOUDY    22  15  74 NW8       30.25R WCI  12
KENOSHA        CLOUDY    24  16  71 NW9       30.24S WCI  14
FOND DU LAC    CLEAR     21  13  71 NW9       30.23F WCI  11
SHEBOYGAN      PTCLDY    22  14  71 NW10      30.21F WCI  11
WEST BEND      CLEAR     21  14  73 NW6       30.22S WCI  14
JUNEAU         CLEAR     20  15  81 NW3       30.24S
$$

LSZ147-162-180200-
LAKE SUPERIOR

STATION/POSITION TIME  TEMP    WIND        PRES    WAVE
                       AIR SEA DIR/SP/G            HT/PER
                 (UTC) (F)     (DEG/KT/KT) (MB)    (FT/S)
DEVILS ISLAND    0000   26      10/  9/ 11 1027.4R
PORT WING        0000   21     200/  4/  6 1026.8S
SAXON HARBOR     0000   27     360/ 10/ 13 1025.7R
$$

LMZ867-665-643>646-180200-
LAKE MICHIGAN

STATION/POSITION TIME  TEMP    WIND        PRES    WAVE
                       AIR SEA DIR/SP/G            HT/PER
                 (UTC) (F)     (DEG/KT/KT) (MB)    (FT/S)
CHAMBERS ISLAND  0000   29     310/ 14/ 17 1021.7R
NORTHPORT PIER   0000   30     330/ 21/ 26 1021.0R
SISTER BAY       0013          350/ 24/ 28   N/A
ALGOMA LAKESHORE 0014          310/ 10/ 15   N/A
KEWAUNEE LAKESHO 0000   26     290/ 10/ 14 1021.2R
SHEBOYGAN LAKESH 0000   24 35  280/ 13/ 15 1024.4R
PORT WASHINGTON  0040   24     290/  7/ 13 1024.0F
MILWAUKEE LAKESH 0000   25     300/ 11/ 16   N/A
KENOSHA   LAKESH 0000   25     300/  5/  9 1024.0R
$$

TC  - TEMPERATURE IN CELSIUS
VSB - VISIBILITY IN STATUTE MILES
WCI - WIND CHILL INDEX
HX  - HEAT INDEX



USA.gov is the U.S. government's official web portal to all federal, state and local government web resources and services.